| time (UTC) | temp F | wind direction | speed MPH | gust MPH | rain 1hr in | rain 24hr in | rain mn in | humidity % | barometer mb |
| 20260504172930 | 74 | 154 | 1.0 | 6.0 | 0.00 | 0.00 | 0.00 | 29 | 1010.2 |
| 20260504172425 | 74 | 189 | 2.0 | 3.0 | 0.00 | 0.00 | 0.00 | 30 | 1010.1 |
| 20260504171922 | 73 | 148 | 1.0 | 3.0 | 0.00 | 0.00 | 0.00 | 32 | 1010.2 |
| 20260504171419 | 73 | 165 | 1.0 | 4.0 | 0.00 | 0.00 | 0.00 | 29 | 1010.3 |
| 20260504170916 | 72 | 74 | 3.0 | 3.0 | 0.00 | 0.00 | 0.00 | 29 | 1010.3 |
| 20260504170412 | 71 | 155 | 0.0 | 2.0 | 0.00 | 0.00 | 0.00 | 27 | 1010.2 |
| 20260504160332 | 69 | 182 | 2.0 | 3.0 | 0.00 | 0.00 | 0.00 | 33 | 1010.5 |
| 20260504150756 | 69 | 147 | 0.0 | 1.0 | 0.00 | 0.00 | 0.00 | 30 | 1010.6 |
| 20260504150253 | 68 | 144 | 0.0 | 0.0 | 0.00 | 0.00 | 0.00 | 32 | 1010.7 |
| 20260504141223 | 65 | 165 | 0.0 | 1.0 | 0.00 | 0.00 | 0.00 | 36 | 1010.8 |
| 20260504140719 | 64 | 137 | 1.0 | 2.0 | 0.00 | 0.00 | 0.00 | 39 | 1010.9 |
| 20260504140214 | 62 | 144 | 0.0 | 0.0 | 0.00 | 0.00 | 0.00 | 41 | 1010.9 |
| 20260504130643 | 53 | 131 | 0.0 | 2.0 | 0.00 | 0.00 | 0.00 | 48 | 1010.7 |
| 20260504130139 | 52 | 180 | 1.0 | 1.0 | 0.00 | 0.00 | 0.00 | 47 | 1010.7 |
| 20260504120104 | 54 | 162 | 1.0 | 3.0 | 0.00 | 0.00 | 0.00 | 42 | 1010.8 |
| 20260504110531 | 55 | 160 | 0.0 | 1.0 | 0.00 | 0.00 | 0.00 | 38 | 1010.8 |
| 20260504100453 | 52 | 162 | 1.0 | 2.0 | 0.00 | 0.00 | 0.00 | 44 | 1010.8 |
| 20260504081846 | 53 | 146 | 0.0 | 0.0 | 0.00 | 0.00 | 0.00 | 49 | 1009.8 |
| 20260504081343 | 54 | 156 | 0.0 | 0.0 | 0.00 | 0.00 | 0.00 | 48 | 1009.8 |
| 20260504080838 | 54 | 157 | 0.0 | 0.0 | 0.00 | 0.00 | 0.00 | 46 | 1010.0 |
| 20260504080336 | 54 | 161 | 0.0 | 0.0 | 0.00 | 0.00 | 0.00 | 46 | 1009.8 |
| 20260504070303 | 60 | 193 | 2.0 | 2.0 | 0.00 | 0.00 | 0.00 | 32 | 1009.7 |
| 20260504060224 | 61 | 137 | 0.0 | 1.0 | 0.00 | 0.00 | 0.00 | 25 | 1009.9 |
| 20260504050651 | 63 | 162 | 0.0 | 1.0 | 0.00 | 0.00 | 0.00 | 24 | 1010.2 |
| 20260504050148 | 63 | 168 | 0.0 | 1.0 | 0.00 | 0.00 | 0.00 | 23 | 1010.0 |
| 20260504045646 | 63 | 163 | 0.0 | 2.0 | 0.00 | 0.00 | 0.00 | 24 | 1010.2 |
| 20260504045146 | 64 | 177 | 0.0 | 1.0 | 0.00 | 0.00 | 0.00 | 23 | 1010.2 |
| 20260504044644 | 64 | 175 | 1.0 | 2.0 | 0.00 | 0.00 | 0.00 | 22 | 1010.3 |
| 20260504044140 | 64 | 162 | 0.0 | 1.0 | 0.00 | 0.00 | 0.00 | 23 | 1010.5 |
| 20260504043637 | 64 | 176 | 1.0 | 2.0 | 0.00 | 0.00 | 0.00 | 22 | 1010.3 |
| 20260504043135 | 64 | 164 | 0.0 | 1.0 | 0.00 | 0.00 | 0.00 | 22 | 1010.2 |
| 20260504042632 | 63 | 160 | 0.0 | 1.0 | 0.00 | 0.00 | 0.00 | 23 | 1010.2 |
| 20260504042128 | 63 | 160 | 0.0 | 1.0 | 0.00 | 0.00 | 0.00 | 23 | 1010.5 |
| 20260504041624 | 63 | 130 | 0.0 | 0.0 | 0.00 | 0.00 | 0.00 | 23 | 1010.6 |
| 20260504041121 | 63 | 156 | 0.0 | 1.0 | 0.00 | 0.00 | 0.00 | 24 | 1010.3 |
| 20260504040618 | 63 | 149 | 0.0 | 0.0 | 0.00 | 0.00 | 0.00 | 24 | 1010.3 |
| 20260504040115 | 64 | 180 | 1.0 | 1.0 | 0.00 | 0.00 | 0.00 | 24 | 1010.3 |
| 20260504035611 | 64 | 155 | 1.0 | 2.0 | 0.00 | 0.00 | 0.00 | 24 | 1010.6 |
| 20260504035108 | 64 | 208 | 1.0 | 3.0 | 0.00 | 0.00 | 0.00 | 23 | 1010.5 |
| 20260504034606 | 64 | 168 | 1.0 | 2.0 | 0.00 | 0.00 | 0.00 | 23 | 1010.2 |
| 20260504034102 | 64 | 161 | 1.0 | 1.0 | 0.00 | 0.00 | 0.00 | 23 | 1010.5 |
| 20260504033600 | 65 | 170 | 1.0 | 1.0 | 0.00 | 0.00 | 0.00 | 24 | 1010.5 |
| 20260504033057 | 65 | 173 | 1.0 | 1.0 | 0.00 | 0.00 | 0.00 | 23 | 1010.7 |
| 20260504032554 | 65 | 184 | 1.0 | 2.0 | 0.00 | 0.00 | 0.00 | 23 | 1010.3 |
| 20260504032051 | 65 | 173 | 1.0 | 1.0 | 0.00 | 0.00 | 0.00 | 24 | 1010.3 |
| 20260504031548 | 66 | 162 | 0.0 | 1.0 | 0.00 | 0.00 | 0.00 | 24 | 1010.3 |
| 20260504031044 | 66 | 169 | 1.0 | 2.0 | 0.00 | 0.00 | 0.00 | 23 | 1010.5 |
| 20260504030542 | 66 | 195 | 2.0 | 2.0 | 0.00 | 0.00 | 0.00 | 23 | 1010.5 |
| 20260504030037 | 66 | 180 | 1.0 | 2.0 | 0.00 | 0.00 | 0.00 | 24 | 1010.3 |
| 20260504025535 | 66 | 169 | 0.0 | 1.0 | 0.00 | 0.00 | 0.00 | 25 | 1010.3 |
| 20260504025031 | 66 | 160 | 0.0 | 1.0 | 0.00 | 0.00 | 0.00 | 26 | 1010.5 |
| 20260504024529 | 67 | 170 | 1.0 | 2.0 | 0.00 | 0.00 | 0.00 | 26 | 1010.3 |
| 20260504024025 | 67 | 157 | 0.0 | 1.0 | 0.00 | 0.00 | 0.00 | 25 | 1010.5 |
| 20260504023522 | 67 | 179 | 1.0 | 2.0 | 0.00 | 0.00 | 0.00 | 25 | 1010.6 |
| 20260504023018 | 68 | 201 | 0.0 | 0.0 | 0.00 | 0.00 | 0.00 | 25 | 1010.3 |
| 20260504022514 | 69 | 170 | 1.0 | 1.0 | 0.00 | 0.00 | 0.00 | 24 | 1010.1 |
| 20260504022011 | 70 | 159 | 0.0 | 1.0 | 0.00 | 0.00 | 0.00 | 24 | 1010.3 |
| 20260504021509 | 70 | 164 | 0.0 | 1.0 | 0.00 | 0.00 | 0.00 | 20 | 1010.5 |
| 20260504021005 | 71 | 161 | 0.0 | 1.0 | 0.00 | 0.00 | 0.00 | 20 | 1010.5 |
| 20260504020502 | 72 | 158 | 0.0 | 0.0 | 0.00 | 0.00 | 0.00 | 19 | 1010.5 |
| 20260504015958 | 72 | 160 | 0.0 | 1.0 | 0.00 | 0.00 | 0.00 | 18 | 1010.3 |
| 20260504015454 | 73 | 164 | 1.0 | 1.0 | 0.00 | 0.00 | 0.00 | 18 | 1010.7 |
| 20260504014950 | 72 | 158 | 0.0 | 0.0 | 0.00 | 0.00 | 0.00 | 18 | 1010.8 |
| 20260504014447 | 72 | 156 | 0.0 | 2.0 | 0.00 | 0.00 | 0.00 | 18 | 1010.8 |
| 20260504013944 | 72 | 158 | 0.0 | 1.0 | 0.00 | 0.00 | 0.00 | 17 | 1010.8 |
| 20260504013442 | 72 | 173 | 1.0 | 1.0 | 0.00 | 0.00 | 0.00 | 17 | 1010.9 |
| 20260504012938 | 73 | 173 | 0.0 | 1.0 | 0.00 | 0.00 | 0.00 | 17 | 1010.9 |
| 20260504012436 | 73 | 161 | 0.0 | 2.0 | 0.00 | 0.00 | 0.00 | 16 | 1010.9 |
| 20260504011934 | 73 | 151 | 0.0 | 1.0 | 0.00 | 0.00 | 0.00 | 17 | 1011.0 |
| 20260504011430 | 73 | 149 | 0.0 | 1.0 | 0.00 | 0.00 | 0.00 | 17 | 1010.9 |
| 20260504010926 | 73 | 155 | 0.0 | 1.0 | 0.00 | 0.00 | 0.00 | 17 | 1011.0 |
| 20260504010422 | 74 | 154 | 0.0 | 1.0 | 0.00 | 0.00 | 0.00 | 17 | 1011.1 |
| 20260504005918 | 74 | 153 | 0.0 | 1.0 | 0.00 | 0.00 | 0.00 | 16 | 1011.3 |
| 20260504005415 | 74 | 160 | 0.0 | 1.0 | 0.00 | 0.00 | 0.00 | 16 | 1011.3 |
| 20260504004913 | 74 | 144 | 1.0 | 1.0 | 0.00 | 0.00 | 0.00 | 17 | 1011.3 |
| 20260504004410 | 75 | 168 | 0.0 | 2.0 | 0.00 | 0.00 | 0.00 | 16 | 1011.3 |
| 20260504003907 | 75 | 182 | 1.0 | 3.0 | 0.00 | 0.00 | 0.00 | 17 | 1011.3 |
| 20260504003403 | 76 | 145 | 0.0 | 2.0 | 0.00 | 0.00 | 0.00 | 16 | 1011.3 |
| 20260504002900 | 77 | 188 | 3.0 | 4.0 | 0.00 | 0.00 | 0.00 | 15 | 1011.6 |
| 20260504002357 | 78 | 146 | 0.0 | 1.0 | 0.00 | 0.00 | 0.00 | 15 | 1011.5 |
| 20260504001855 | 78 | 128 | 0.0 | 3.0 | 0.00 | 0.00 | 0.00 | 15 | 1011.4 |
| 20260504001352 | 77 | 164 | 0.0 | 1.0 | 0.00 | 0.00 | 0.00 | 13 | 1011.4 |
| 20260504000848 | 77 | 207 | 2.0 | 3.0 | 0.00 | 0.00 | 0.00 | 14 | 1011.6 |
| 20260504000346 | 78 | 196 | 2.0 | 2.0 | 0.00 | 0.00 | 0.00 | 14 | 1011.5 |
| 20260503235843 | 77 | 159 | 0.0 | 1.0 | 0.00 | 0.00 | 0.00 | 15 | 1011.5 |
| 20260503235341 | 77 | 107 | 0.0 | 2.0 | 0.00 | 0.00 | 0.00 | 15 | 1011.6 |
| 20260503234838 | 78 | 204 | 2.0 | 3.0 | 0.00 | 0.00 | 0.00 | 14 | 1011.7 |
| 20260503234336 | 78 | 153 | 0.0 | 1.0 | 0.00 | 0.00 | 0.00 | 15 | 1011.6 |
| 20260503233833 | 78 | 259 | 5.0 | 6.0 | 0.00 | 0.00 | 0.00 | 14 | 1011.8 |
| 20260503233329 | 78 | 209 | 3.0 | 3.0 | 0.00 | 0.00 | 0.00 | 15 | 1011.7 |
| 20260503232825 | 78 | 213 | 3.0 | 4.0 | 0.00 | 0.00 | 0.00 | 17 | 1011.9 |
| 20260503232323 | 76 | 158 | 0.0 | 1.0 | 0.00 | 0.00 | 0.00 | 18 | 1011.9 |
| 20260503231821 | 76 | 192 | 2.0 | 3.0 | 0.00 | 0.00 | 0.00 | 15 | 1011.9 |
| 20260503231318 | 76 | 183 | 0.0 | 2.0 | 0.00 | 0.00 | 0.00 | 18 | 1011.9 |
| 20260503230813 | 76 | 203 | 2.0 | 3.0 | 0.00 | 0.00 | 0.00 | 17 | 1012.0 |
| 20260503230311 | 75 | 163 | 1.0 | 2.0 | 0.00 | 0.00 | 0.00 | 19 | 1011.9 |
| 20260503225808 | 75 | 150 | 1.0 | 4.0 | 0.00 | 0.00 | 0.00 | 18 | 1012.2 |
| 20260503225304 | 76 | 179 | 2.0 | 2.0 | 0.00 | 0.00 | 0.00 | 18 | 1012.2 |
| 20260503224800 | 76 | 192 | 1.0 | 2.0 | 0.00 | 0.00 | 0.00 | 17 | 1012.4 |
| 20260503224258 | 76 | 183 | 2.0 | 4.0 | 0.00 | 0.00 | 0.00 | 18 | 1012.3 |
| 20260503223755 | 77 | 152 | 1.0 | 3.0 | 0.00 | 0.00 | 0.00 | 20 | 1012.4 |
| 20260503223253 | 77 | 176 | 0.0 | 1.0 | 0.00 | 0.00 | 0.00 | 17 | 1012.4 |
| 20260503222749 | 77 | 217 | 1.0 | 2.0 | 0.00 | 0.00 | 0.00 | 17 | 1012.5 |
| 20260503222247 | 77 | 134 | 1.0 | 2.0 | 0.00 | 0.00 | 0.00 | 18 | 1012.5 |
| 20260503221745 | 77 | 93 | 2.0 | 3.0 | 0.00 | 0.00 | 0.00 | 14 | 1012.8 |
| 20260503221243 | 77 | 130 | 3.0 | 4.0 | 0.00 | 0.00 | 0.00 | 17 | 1012.8 |
| 20260503220739 | 77 | 132 | 0.0 | 3.0 | 0.00 | 0.00 | 0.00 | 15 | 1012.7 |
| 20260503220236 | 78 | 136 | 4.0 | 6.0 | 0.00 | 0.00 | 0.00 | 15 | 1013.0 |
| 20260503215732 | 78 | 155 | 3.0 | 4.0 | 0.00 | 0.00 | 0.00 | 16 | 1012.8 |
| 20260503215230 | 79 | 138 | 1.0 | 2.0 | 0.00 | 0.00 | 0.00 | 13 | 1013.1 |
| 20260503214728 | 79 | 155 | 0.0 | 1.0 | 0.00 | 0.00 | 0.00 | 13 | 1013.1 |
| 20260503214224 | 80 | 158 | 0.0 | 7.0 | 0.00 | 0.00 | 0.00 | 15 | 1013.1 |
| 20260503213722 | 80 | 119 | 2.0 | 6.0 | 0.00 | 0.00 | 0.00 | 15 | 1013.3 |
| 20260503213219 | 79 | 124 | 1.0 | 4.0 | 0.00 | 0.00 | 0.00 | 14 | 1013.3 |
| 20260503212716 | 78 | 84 | 2.0 | 4.0 | 0.00 | 0.00 | 0.00 | 14 | 1013.4 |
| 20260503212214 | 80 | 95 | 2.0 | 6.0 | 0.00 | 0.00 | 0.00 | 15 | 1013.5 |
| 20260503211712 | 80 | 156 | 1.0 | 2.0 | 0.00 | 0.00 | 0.00 | 18 | 1013.6 |
| 20260503211207 | 79 | 166 | 0.0 | 2.0 | 0.00 | 0.00 | 0.00 | 16 | 1013.6 |
| 20260503210703 | 79 | 142 | 2.0 | 7.0 | 0.00 | 0.00 | 0.00 | 17 | 1013.8 |
| 20260503210200 | 78 | 183 | 1.0 | 1.0 | 0.00 | 0.00 | 0.00 | 19 | 1013.8 |
| 20260503205655 | 78 | 169 | 1.0 | 6.0 | 0.00 | 0.00 | 0.00 | 19 | 1013.9 |
| 20260503205152 | 79 | 73 | 3.0 | 4.0 | 0.00 | 0.00 | 0.00 | 17 | 1014.0 |
| 20260503204649 | 79 | 80 | 1.0 | 3.0 | 0.00 | 0.00 | 0.00 | 17 | 1014.0 |
| 20260503204146 | 78 | 224 | 3.0 | 4.0 | 0.00 | 0.00 | 0.00 | 16 | 1014.0 |
| 20260503203643 | 79 | 98 | 2.0 | 4.0 | 0.00 | 0.00 | 0.00 | 15 | 1014.2 |
| 20260503203141 | 79 | 141 | 3.0 | 6.0 | 0.00 | 0.00 | 0.00 | 18 | 1014.2 |
| 20260503202638 | 79 | 148 | 3.0 | 4.0 | 0.00 | 0.00 | 0.00 | 18 | 1014.2 |
| 20260503202136 | 79 | 155 | 0.0 | 2.0 | 0.00 | 0.00 | 0.00 | 18 | 1014.3 |
| 20260503201634 | 78 | 122 | 1.0 | 2.0 | 0.00 | 0.00 | 0.00 | 20 | 1014.4 |
| 20260503201131 | 78 | 237 | 3.0 | 3.0 | 0.00 | 0.00 | 0.00 | 16 | 1014.5 |
| 20260503200627 | 79 | 71 | 4.0 | 4.0 | 0.00 | 0.00 | 0.00 | 18 | 1014.5 |
| 20260503200124 | 77 | 143 | 1.0 | 3.0 | 0.00 | 0.00 | 0.00 | 18 | 1014.7 |
| 20260503195621 | 77 | 157 | 2.0 | 3.0 | 0.00 | 0.00 | 0.00 | 16 | 1014.7 |
| 20260503195118 | 78 | 191 | 1.0 | 2.0 | 0.00 | 0.00 | 0.00 | 13 | 1014.8 |
| 20260503194615 | 76 | 188 | 1.0 | 2.0 | 0.00 | 0.00 | 0.00 | 17 | 1014.9 |
| 20260503194109 | 76 | 131 | 1.0 | 4.0 | 0.00 | 0.00 | 0.00 | 20 | 1014.9 |
| 20260503193607 | 77 | 135 | 2.0 | 6.0 | 0.00 | 0.00 | 0.00 | 21 | 1015.0 |
| 20260503193102 | 76 | 131 | 1.0 | 2.0 | 0.00 | 0.00 | 0.00 | 18 | 1015.0 |
| 20260503192558 | 76 | 156 | 2.0 | 7.0 | 0.00 | 0.00 | 0.00 | 19 | 1014.9 |
| 20260503192054 | 76 | 139 | 1.0 | 2.0 | 0.00 | 0.00 | 0.00 | 20 | 1015.0 |
| 20260503191551 | 76 | 148 | 2.0 | 3.0 | 0.00 | 0.00 | 0.00 | 21 | 1015.2 |
| 20260503191048 | 75 | 180 | 2.0 | 2.0 | 0.00 | 0.00 | 0.00 | 23 | 1015.6 |
| 20260503190544 | 76 | 95 | 0.0 | 4.0 | 0.00 | 0.00 | 0.00 | 23 | 1015.5 |
| 20260503190042 | 76 | 139 | 0.0 | 2.0 | 0.00 | 0.00 | 0.00 | 21 | 1015.5 |
| 20260503185538 | 76 | 116 | 1.0 | 3.0 | 0.00 | 0.00 | 0.00 | 21 | 1015.6 |
| 20260503185038 | 74 | 152 | 2.0 | 2.0 | 0.00 | 0.00 | 0.00 | 23 | 1015.7 |
| 20260503184534 | 74 | 219 | 1.0 | 2.0 | 0.00 | 0.00 | 0.00 | 21 | 1015.7 |
| 20260503184031 | 75 | 121 | 2.0 | 3.0 | 0.00 | 0.00 | 0.00 | 22 | 1015.7 |
| 20260503183528 | 74 | 117 | 0.0 | 2.0 | 0.00 | 0.00 | 0.00 | 23 | 1015.9 |
| 20260503183025 | 73 | 137 | 0.0 | 1.0 | 0.00 | 0.00 | 0.00 | 24 | 1015.9 |
| 20260503182523 | 74 | 107 | 2.0 | 3.0 | 0.00 | 0.00 | 0.00 | 29 | 1016.1 |
| 20260503182021 | 73 | 64 | 2.0 | 3.0 | 0.00 | 0.00 | 0.00 | 27 | 1016.1 |
| 20260503181518 | 74 | 153 | 1.0 | 2.0 | 0.00 | 0.00 | 0.00 | 24 | 1016.1 |
| 20260503181014 | 73 | 145 | 1.0 | 1.0 | 0.00 | 0.00 | 0.00 | 22 | 1016.1 |
| 20260503180511 | 73 | 61 | 3.0 | 4.0 | 0.00 | 0.00 | 0.00 | 23 | 1016.5 |
| 20260503180008 | 73 | 88 | 2.0 | 3.0 | 0.00 | 0.00 | 0.00 | 23 | 1016.5 |
| 20260503175506 | 73 | 150 | 1.0 | 2.0 | 0.00 | 0.00 | 0.00 | 23 | 1016.5 |
| 20260503175002 | 72 | 168 | 2.0 | 3.0 | 0.00 | 0.00 | 0.00 | 26 | 1016.3 |
| 20260503174500 | 71 | 152 | 0.0 | 1.0 | 0.00 | 0.00 | 0.00 | 28 | 1016.5 |
| 20260503173955 | 71 | 177 | 1.0 | 3.0 | 0.00 | 0.00 | 0.00 | 28 | 1016.4 |
| 20260503173451 | 71 | 139 | 1.0 | 2.0 | 0.00 | 0.00 | 0.00 | 27 | 1016.5 |